Location: Newark
(42.8481°N, 0.4872°E)
Time: 08:51:45
(UTC+00:00)

A-11 Canister half - Pass Details

Date: 04 November 2020
Orbit: 1516 x 1684 km, 47.2° (Epoch: 04 December)

Event Time Altitude Azimuth Distance (km) Brightness Sun altitude
Rises 22:03:22 0° 284° (WNW) 4,931 12.1 -55.7°
Reaches altitude 10° 22:06:35 10° 287° (WNW) 3,932 11.4 -56.1°
Enters shadow 22:09:30 22° 290° (WNW) 3,057 10.7 -56.5°
